DW8400 Weather Reports


time (UTC)temp
C
wind
direction
speed
KPH
gust
KPH
rain 1hr
cm
rain 24hr
cm
rain mn
cm
humidity
%
barometer
mb
20260504232040 25 250 4.8 14.5 0.00 0.00 0.00 54 1007.5
20260504231555 25 208 4.8 17.7 0.00 0.00 0.00 53 1007.4
20260504231039 25 246 3.2 19.3 0.00 0.00 0.00 52 1007.5
20260504230539 25 192 4.8 19.3 0.00 0.00 0.00 53 1007.5
20260504230039 25 217 6.4 16.1 0.00 0.00 0.00 53 1007.6
20260504225539 25 143 4.8 12.9 0.00 0.00 0.00 52 1007.6
20260504225038 25 155 4.8 27.4 0.00 0.00 0.00 52 1007.6
20260504224540 25 149 8.0 19.3 0.00 0.00 0.00 51 1007.7
20260504224038 26 296 1.6 8.0 0.00 0.00 0.00 51 1007.6
20260504223538 26 277 0.0 9.7 0.00 0.00 0.00 51 1007.6
20260504223038 26 256 1.6 12.9 0.00 0.00 0.00 50 1007.7
20260504222538 26 250 3.2 17.7 0.00 0.00 0.00 51 1007.7
20260504222037 26 222 4.8 17.7 0.00 0.00 0.00 49 1007.8
20260504221538 26 150 6.4 17.7 0.00 0.00 0.00 48 1007.8
20260504221035 27 211 4.8 17.7 0.00 0.00 0.00 47 1007.8
20260504220535 27 315 0.0 8.0 0.00 0.00 0.00 50 1007.9
20260504220036 26 296 0.0 9.7 0.00 0.00 0.00 49 1007.9
20260504215534 26 254 3.2 17.7 0.00 0.00 0.00 48 1008.0
20260504215036 26 300 4.8 17.7 0.00 0.00 0.00 47 1008.0
20260504214534 27 135 4.8 16.1 0.00 0.00 0.00 48 1008.0
20260504214034 27 154 4.8 16.1 0.00 0.00 0.00 48 1008.0
20260504213533 27 212 6.4 14.5 0.00 0.00 0.00 48 1008.1
20260504213032 27 142 4.8 17.7 0.00 0.00 0.00 49 1008.1
20260504212532 27 167 8.0 14.5 0.00 0.00 0.00 48 1008.2
20260504212030 27 291 1.6 20.9 0.00 0.00 0.00 48 1008.3
20260504211531 26 271 9.7 20.9 0.00 0.00 0.00 48 1008.3
20260504211028 27 184 8.0 27.4 0.00 0.00 0.00 48 1008.4
20260504210528 27 260 9.7 27.4 0.00 0.00 0.00 47 1008.5
20260504210036 27 113 3.2 17.7 0.00 0.00 0.00 50 1008.6
20260504205527 27 227 4.8 19.3 0.00 0.00 0.00 47 1008.6
20260504205026 26 261 3.2 22.5 0.00 0.00 0.00 48 1008.7
20260504204526 26 229 9.7 22.5 0.00 0.00 0.00 48 1008.8
20260504204025 27 241 8.0 24.1 0.00 0.00 0.00 48 1008.7
20260504203525 27 213 11.3 24.1 0.00 0.00 0.00 46 1008.8
20260504203031 27 253 1.6 24.1 0.00 0.00 0.00 48 1008.8
20260504202522 27 248 3.2 24.1 0.00 0.00 0.00 48 1009.0
20260504202021 27 348 3.2 17.7 0.00 0.00 0.00 48 1009.1
20260504201521 27 149 3.2 17.7 0.00 0.00 0.00 50 1009.2
20260504201021 27 307 6.4 14.5 0.00 0.00 0.00 47 1009.5
20260504200520 27 180 0.0 22.5 0.00 0.00 0.00 51 1009.4
20260504200021 27 43 6.4 22.5 0.00 0.00 0.00 48 1009.6
20260504195517 26 290 6.4 24.1 0.00 0.00 0.00 48 1009.5
20260504195017 26 175 6.4 24.1 0.00 0.00 0.00 47 1009.7
20260504194531 27 266 6.4 22.5 0.00 0.00 0.00 47 1009.7
20260504194016 26 149 11.3 30.6 0.00 0.00 0.00 47 1009.8
20260504193517 26 144 6.4 30.6 0.00 0.00 0.00 47 1009.8
20260504193018 27 151 8.0 20.9 0.00 0.00 0.00 48 1009.9
20260504192513 26 295 6.4 20.9 0.00 0.00 0.00 47 1010.0
20260504192013 26 350 4.8 19.3 0.00 0.00 0.00 49 1010.0
20260504191512 26 221 6.4 20.9 0.00 0.00 0.00 48 1010.3
20260504191013 26 163 12.9 20.9 0.00 0.00 0.00 47 1010.2
20260504190512 26 258 3.2 24.1 0.00 0.00 0.00 48 1010.4
20260504190011 26 142 8.0 25.7 0.00 0.00 0.00 48 1010.2
20260504185513 26 130 9.7 25.7 0.00 0.00 0.00 48 1010.4
20260504185011 26 196 8.0 33.8 0.00 0.00 0.00 47 1010.3
20260504184513 26 268 16.1 33.8 0.00 0.00 0.00 48 1010.4
20260504184010 26 236 4.8 29.0 0.00 0.00 0.00 47 1010.5
20260504183510 26 132 8.0 29.0 0.00 0.00 0.00 50 1010.5
20260504183009 26 149 3.2 25.7 0.00 0.00 0.00 49 1010.6
20260504182509 26 293 9.7 25.7 0.00 0.00 0.00 50 1010.7
20260504182007 26 227 4.8 29.0 0.00 0.00 0.00 51 1010.7
20260504181506 26 226 6.4 29.0 0.00 0.00 0.00 50 1010.7
20260504181008 26 217 3.2 19.3 0.00 0.00 0.00 50 1010.9
20260504180505 26 146 8.0 22.5 0.00 0.00 0.00 47 1010.9
20260504180012 26 178 6.4 24.1 0.00 0.00 0.00 46 1011.0
20260504175504 26 263 8.0 27.4 0.00 0.00 0.00 48 1011.1
20260504175005 26 149 8.0 22.5 0.00 0.00 0.00 48 1011.2
20260504174503 26 220 6.4 27.4 0.00 0.00 0.00 50 1011.3
20260504174003 26 340 11.3 27.4 0.00 0.00 0.00 47 1011.4
20260504173502 26 151 8.0 25.7 0.00 0.00 0.00 50 1011.5
20260504173000 26 316 3.2 19.3 0.00 0.00 0.00 51 1011.7
20260504172559 26 107 4.8 19.3 0.00 0.00 0.00 47 1011.7
20260504172058 26 298 3.2 17.7 0.00 0.00 0.00 49 1011.8
20260504171558 25 221 6.4 27.4 0.00 0.00 0.00 47 1011.8
20260504171057 25 326 4.8 27.4 0.00 0.00 0.00 49 1012.0
20260504170556 25 203 4.8 32.2 0.00 0.00 0.00 48 1011.9
20260504151042 23 310 1.6 14.5 0.00 0.00 0.00 59 1012.7
20260504150545 23 107 1.6 14.5 0.00 0.00 0.00 57 1012.8
20260504141032 21 149 1.6 11.3 0.00 0.00 0.00 66 1013.1
20260504140529 21 305 1.6 11.3 0.00 0.00 0.00 65 1013.1
20260504130517 18 264 0.0 8.0 0.00 0.00 0.00 77 1013.0
20260504110510 11 304 0.0 0.0 0.00 0.00 0.00 97 1012.1
20260504100503 11 304 0.0 1.6 0.00 0.00 0.00 96 1012.5
20260504081549 13 304 0.0 1.6 0.00 0.00 0.00 90 1012.8
20260504081048 13 304 0.0 1.6 0.00 0.00 0.00 90 1012.7
20260504080547 13 304 0.0 1.6 0.00 0.00 0.00 89 1012.8
20260504050519 18 274 0.0 1.6 0.00 0.00 0.00 70 1013.7
20260504050017 18 276 0.0 1.6 0.00 0.00 0.00 70 1013.6
20260504045515 18 267 0.0 3.2 0.00 0.00 0.00 69 1013.7
20260504045015 18 264 0.0 3.2 0.00 0.00 0.00 69 1013.6
20260504044516 18 271 0.0 1.6 0.00 0.00 0.00 69 1013.6
20260504044017 18 271 0.0 1.6 0.00 0.00 0.00 69 1013.5
20260504043519 18 270 0.0 1.6 0.00 0.00 0.00 69 1013.5
20260504043016 18 272 0.0 3.2 0.00 0.00 0.00 68 1013.5
20260504042514 18 250 0.0 4.8 0.00 0.00 0.00 68 1013.6
20260504042014 18 235 0.0 8.0 0.00 0.00 0.00 69 1013.7
20260504041515 18 270 0.0 8.0 0.00 0.00 0.00 69 1013.7
20260504041016 18 199 1.6 8.0 0.00 0.00 0.00 70 1013.8
20260504040514 18 251 1.6 8.0 0.00 0.00 0.00 71 1013.8
20260504040014 17 249 0.0 4.8 0.00 0.00 0.00 74 1013.9
20260504035514 17 281 0.0 1.6 0.00 0.00 0.00 76 1013.9
20260504035016 17 280 0.0 1.6 0.00 0.00 0.00 77 1013.9
20260504034523 17 267 0.0 0.0 0.00 0.00 0.00 77 1014.0
20260504034013 17 266 0.0 0.0 0.00 0.00 0.00 76 1014.0
20260504033521 17 266 0.0 0.0 0.00 0.00 0.00 75 1014.0
20260504033015 17 267 0.0 0.0 0.00 0.00 0.00 74 1013.9
20260504032513 17 267 0.0 1.6 0.00 0.00 0.00 73 1013.9
20260504032013 17 267 0.0 3.2 0.00 0.00 0.00 73 1014.0
20260504031513 18 286 0.0 6.4 0.00 0.00 0.00 73 1014.0
20260504031012 17 251 0.0 6.4 0.00 0.00 0.00 74 1014.0
20260504030512 17 271 0.0 1.6 0.00 0.00 0.00 75 1014.0
20260504030012 17 271 0.0 1.6 0.00 0.00 0.00 75 1014.0
20260504025512 17 279 0.0 1.6 0.00 0.00 0.00 76 1014.0
20260504025013 17 280 0.0 0.0 0.00 0.00 0.00 76 1014.0
20260504024512 17 279 0.0 0.0 0.00 0.00 0.00 76 1013.9
20260504024015 17 280 0.0 0.0 0.00 0.00 0.00 76 1013.9
20260504023511 17 280 0.0 1.6 0.00 0.00 0.00 76 1013.8
20260504023012 17 279 0.0 1.6 0.00 0.00 0.00 76 1013.8
20260504022511 17 279 0.0 1.6 0.00 0.00 0.00 77 1013.7
20260504022011 17 279 0.0 1.6 0.00 0.00 0.00 78 1013.7
20260504021511 17 279 0.0 1.6 0.00 0.00 0.00 77 1013.8
20260504021010 17 279 0.0 0.0 0.00 0.00 0.00 76 1013.7
20260504020510 17 279 0.0 1.6 0.00 0.00 0.00 75 1013.7
20260504020010 17 279 0.0 1.6 0.00 0.00 0.00 75 1013.6
20260504015510 17 279 0.0 0.0 0.00 0.00 0.00 75 1013.6
20260504015012 17 279 0.0 1.6 0.00 0.00 0.00 76 1013.6
20260504014517 18 279 0.0 1.6 0.00 0.00 0.00 74 1013.6
20260504014009 18 279 0.0 0.0 0.00 0.00 0.00 73 1013.6
20260504013509 18 279 0.0 0.0 0.00 0.00 0.00 71 1013.5
20260504013009 18 279 0.0 1.6 0.00 0.00 0.00 69 1013.5
20260504012510 19 279 0.0 1.6 0.00 0.00 0.00 68 1013.5
20260504012009 19 279 0.0 0.0 0.00 0.00 0.00 69 1013.6
20260504011510 19 279 0.0 1.6 0.00 0.00 0.00 68 1013.5
20260504011008 20 279 0.0 1.6 0.00 0.00 0.00 66 1013.5
20260504010508 20 279 0.0 1.6 0.00 0.00 0.00 65 1013.5
20260504010009 21 279 0.0 0.0 0.00 0.00 0.00 61 1013.4
20260504005508 21 278 0.0 0.0 0.00 0.00 0.00 61 1013.4
20260504005009 22 278 0.0 1.6 0.00 0.00 0.00 58 1013.3
20260504004508 22 278 0.0 1.6 0.00 0.00 0.00 57 1013.3
20260504004008 22 278 0.0 1.6 0.00 0.00 0.00 55 1013.4
20260504003507 22 278 0.0 1.6 0.00 0.00 0.00 53 1013.4
20260504003007 23 278 0.0 1.6 0.00 0.00 0.00 53 1013.4
20260504002506 23 286 0.0 1.6 0.00 0.00 0.00 52 1013.4
20260504002006 23 284 0.0 3.2 0.00 0.00 0.00 51 1013.4
20260504001612 23 284 0.0 3.2 0.00 0.00 0.00 51 1013.5
20260504001005 23 246 0.0 9.7 0.00 0.00 0.00 53 1013.5
20260504000508 24 295 0.0 9.7 0.00 0.00 0.00 50 1013.5
20260504000005 24 282 0.0 6.4 0.00 0.00 0.00 49 1013.6
20260503235504 24 228 0.0 6.4 0.00 0.00 0.00 49 1013.6
20260503235004 25 313 0.0 4.8 0.00 0.00 0.00 48 1013.5
20260503234507 25 137 0.0 4.8 0.00 0.00 0.00 49 1013.6
20260503234004 25 304 0.0 4.8 0.00 0.00 0.00 48 1013.7
20260503233504 26 104 0.0 8.0 0.00 0.00 0.00 46 1013.7
20260503233003 26 252 1.6 8.0 0.00 0.00 0.00 46 1013.7
20260503232502 26 258 0.0 6.4 0.00 0.00 0.00 45 1013.7